Cloud_Cover
0 0 0 8 5 0 3 1 4 12 13 8 13 14 3 7 0 0 0 0 0 4 89 100 100 100 100 100 100 100 100 100 100 100 100 100 100 100 16 97 36 98 49 68 97
0 0 0 0 4 4 0 6 4 8 6 29 32 5 9 28 22 0 0 0 0 0 3 75 100 100 100 100 100 100 100 100 100 100 100 100 100 100 100 100 100 100 11 98 98
0 0 0 0 0 3 10 5 10 15 15 16 6 8 12 18 33 0 0 0 0 0 0 43 100 100 100 100 100 100 100 100 100 100 100 100 100 100 79 97 100 83 47 76 100
100 64 14 2 2 2 2 5 9 0 0 13 6 8 4 58 3 0 0 0 0 0 0 0 36 92 100 100 100 100 100 100 100 100 100 100 100 100 100 100 100 100 7 85 100
100 100 100 97 6 1 7 10 1 2 1 10 12 7 8 5 3 0 0 0 0 0 0 0 0 1 95 100 100 100 100 100 100 100 100 100 100 100 100 100 100 100 100 15 55
100 100 100 100 100 14 2 14 17 10 11 11 22 5 52 6 2 0 0 0 0 0 0 0 0 0 5 87 100 100 100 100 100 100 100 100 100 100 100 100 100 100 100 100 98
39 22 44 69 100 99 2 1 0 17 0 0 5 5 73 6 4 0 0 0 0 0 0 0 0 0 0 4 34 100 36 88 100 100 100 100 100 100 100 100 100 100 100 100 99
100 100 48 55 51 87 29 2 6 0 0 0 0 5 8 94 95 5 0 0 0 0 0 0 0 0 0 0 4 100 100 91 100 100 100 100 100 100 100 100 100 100 100 100 100
100 97 57 100 98 45 99 16 0 0 0 0 0 0 4 8 50 45 28 0 0 0 0 0 0 0 0 0 0 26 34 100 100 100 100 100 100 100 100 91 76 70 99 100 99
58 72 52 81 100 100 70 0 0 0 0 0 0 0 0 0 1 27 70 11 4 0 0 0 0 0 0 0 0 0 17 16 100 100 100 100 80 100 100 100 100 100 100 100 100
92 33 41 100 100 99 24 0 0 0 0 0 0 2 1 2 0 0 2 4 5 5 0 0 0 0 0 0 0 0 0 0 10 100 100 100 100 100 100 100 100 100 100 100 100
79 39 67 46 24 54 74 16 0 0 0 0 0 0 0 0 0 0 0 0 0 0 0 0 0 0 0 0 0 0 0 0 0 0 1 86 100 100 100 100 100 100 100 100 100
42 38 99 48 1 3 3 5 4 0 0 0 0 0 0 0 0 0 1 0 0 0 0 0 0 0 0 0 0 0 0 0 0 0 0 0 5 72 96 100 100 100 100 100 100
16 31 91 33 0 0 0 4 5 1 0 0 0 0 0 0 0 0 0 0 0 0 0 0 0 0 0 0 0 0 0 0 0 0 0 0 0 2 0 9 89 100 100 100 100
10 1 30 10 0 0 2 4 5 9 4 10 0 0 0 0 0 0 0 0 0 0 1 0 0 0 0 0 0 0 0 0 0 0 0 0 0 0 0 0 0 0 6 71 100
1 9 59 5 1 0 0 3 4 0 4 5 78 6 1 0 0 2 4 0 0 0 1 1 0 1 0 0 0 0 0 0 0 0 0 0 0 0 0 0 0 0 0 0 0
4 1 26 0 0 0 2 0 1 5 4 15 26 54 94 89 91 72 96 74 3 0 4 0 0 0 0 0 0 0 2 3 2 0 0 0 0 0 0 0 0 0 0 0 0
4 0 5 0 4 0 0 0 3 14 5 2 1 4 5 13 34 23 35 17 5 7 5 2 2 0 0 0 0 5 2 5 12 5 0 0 0 0 0 0 0 0 0 0 0
5 5 5 5 5 0 0 0 4 0 0 0 0 0 0 2 9 70 48 5 1 3 3 0 0 0 0 0 0 0 0 1 43 4 5 0 0 0 0 0 0 0 0 0 0
41 5 5 5 5 4 3 2 5 4 3 0 0 0 0 4 10 35 93 12 9 31 10 5 1 0 0 0 0 0 19 23 24 12 12 1 5 4 2 0 0 0 0 0 0
13 10 5 5 5 5 5 5 5 0 0 0 0 0 5 5 4 27 99 97 21 100 11 6 1 0 0 0 0 1 34 44 5 87 67 64 61 45 3 4 2 0 0 0 0
40 9 28 5 5 5 5 5 5 5 5 2 4 0 5 5 1 5 44 33 87 28 12 0 5 5 0 1 1 5 19 5 51 72 82 94 17 100 6 66 0 0 0 0 0
72 54 13 31 6 5 5 5 5 5 5 34 5 2 1 2 52 49 80 98 56 55 35 7 5 39 16 85 95 92 95 24 27 92 76 89 11 5 1 4 4 0 5 77 1
10 13 19 8 61 6 5 7 5 5 5 5 22 55 14 2 4 35 67 100 74 71 97 76 23 25 27 94 52 100 99 99 96 100 76 64 2 8 1 0 6 20 66 86 8
5 17 6 56 6 5 5 5 5 5 5 4 0 2 1 2 3 56 53 99 45 5 90 82 16 4 5 33 81 62 93 100 98 86 100 33 55 5 5 6 90 99 100 100 8
28 6 26 80 96 6 5 5 5 5 0 0 0 3 1 4 5 6 99 88 100 20 28 32 5 10 90 71 83 61 96 100 100 100 100 98 10 5 2 91 97 100 100 100 77
97 97 19 9 100 82 20 5 5 5 2 1 4 5 4 3 5 5 72 100 100 69 5 5 20 21 99 94 100 100 62 65 100 100 100 100 100 6 8 59 100 100 100 100 100